GW0207 Weather Reports


Display with metric or nautical units.
time (UTC)temp
F
wind
direction
speed
MPH
gust
MPH
rain 1hr
in
rain 24hr
in
rain mn
in
humidity
%
barometer
mb
20260509235729 69 150 0.0 0.0 0.00 0.00 0.00 79 1009.8
20260509235229 70 148 0.0 0.0 0.00 0.00 0.00 79 1009.8
20260509234731 70 145 0.0 0.0 0.00 0.00 0.00 78 1009.6
20260509234229 70 144 0.0 0.0 0.00 0.00 0.00 77 1009.4
20260509233729 71 144 0.0 0.0 0.00 0.00 0.00 77 1009.4
20260509233229 71 143 0.0 0.0 0.00 0.00 0.00 77 1009.6
20260509232729 71 357 0.0 0.0 0.00 0.00 0.00 76 1009.5
20260509232229 71 357 0.0 0.0 0.00 0.00 0.00 76 1009.4
20260509231729 71 357 0.0 1.0 0.00 0.00 0.00 75 1009.2
20260509231228 72 357 0.0 1.0 0.00 0.00 0.00 76 1009.3
20260509230951 72 15 0.0 1.0 0.00 0.00 0.00 74 1009.3
20260509230229 72 47 0.0 1.0 0.00 0.00 0.00 74 1009.2
20260509225729 72 81 0.0 1.0 0.00 0.00 0.00 74 1009.1
20260509225229 72 9 0.0 1.0 0.00 0.00 0.00 74 1009.1
20260509224730 73 216 0.0 1.0 0.00 0.00 0.00 73 1009.2
20260509224231 73 240 0.0 1.0 0.00 0.00 0.00 73 1009.1
20260509223937 73 57 0.0 1.0 0.00 0.00 0.00 72 1009.3
20260509223928 73 50 0.0 1.0 0.00 0.00 0.00 73 1009.3
20260509222731 73 36 0.0 1.0 0.00 0.00 0.00 71 1009.4
20260509222231 73 342 0.0 2.0 0.00 0.00 0.00 72 1009.3
20260509221731 73 45 0.0 2.0 0.00 0.00 0.00 72 1009.4
20260509221450 73 50 0.0 1.0 0.00 0.00 0.00 72 1009.3
20260509220730 73 59 0.0 1.0 0.00 0.00 0.00 71 1009.3
20260509220231 73 29 0.0 2.0 0.00 0.00 0.00 71 1009.4
20260509215731 73 36 0.0 2.0 0.00 0.00 0.00 71 1009.3
20260509215231 73 35 0.0 1.0 0.00 0.00 0.00 71 1009.3
20260509214731 74 39 0.0 1.0 0.00 0.00 0.00 70 1009.3
20260509214231 74 31 0.0 1.0 0.00 0.00 0.00 70 1009.3
20260509213731 74 5 0.0 1.0 0.00 0.00 0.00 70 1009.3
20260509213232 74 81 0.0 1.0 0.00 0.00 0.00 71 1009.1
20260509212731 73 41 0.0 1.0 0.00 0.00 0.00 71 1009.0
20260509212452 73 62 0.0 1.0 0.00 0.00 0.00 71 1009.0
20260509211731 73 46 0.0 1.0 0.00 0.00 0.00 71 1009.0
20260509211231 73 47 0.0 1.0 0.00 0.00 0.00 72 1009.0
20260509210731 73 233 0.0 2.0 0.00 0.00 0.00 72 1009.0
20260509210231 73 50 0.0 2.0 0.00 0.00 0.00 70 1009.1
20260509210216 73 38 0.0 3.0 0.00 0.00 0.00 71 1009.1
20260509205451 73 83 0.0 3.0 0.00 0.00 0.00 70 1009.2
20260509204731 73 41 0.0 1.0 0.00 0.00 0.00 71 1009.2
20260509204231 73 58 0.0 1.0 0.00 0.00 0.00 70 1009.0
20260509203233 73 55 0.0 3.0 0.00 0.00 0.00 70 1009.1
20260509202731 73 106 0.0 3.0 0.00 0.00 0.00 70 1009.1
20260509202231 73 115 0.0 3.0 0.00 0.00 0.00 70 1009.1
20260509201731 73 242 0.0 2.0 0.00 0.00 0.00 70 1009.1
20260509201232 73 7 0.0 2.0 0.00 0.00 0.00 69 1009.1
20260509200732 73 59 0.0 2.0 0.00 0.00 0.00 69 1009.2
20260509200231 73 49 0.0 1.0 0.00 0.00 0.00 69 1009.4
20260509195950 73 149 0.0 1.0 0.00 0.00 0.00 68 1009.3
20260509195231 73 109 0.0 3.0 0.00 0.00 0.00 67 1009.4
20260509194731 73 66 0.0 3.0 0.00 0.00 0.00 66 1009.3
20260509194231 73 48 0.0 2.0 0.00 0.00 0.00 66 1009.3
20260509193953 73 65 0.0 2.0 0.00 0.00 0.00 65 1009.4
20260509193231 73 50 0.0 1.0 0.00 0.00 0.00 64 1009.5
20260509192731 74 48 0.0 1.0 0.00 0.00 0.00 63 1009.7
20260509192231 74 24 0.0 2.0 0.00 0.00 0.00 64 1009.7
20260509191731 74 64 0.0 4.0 0.00 0.00 0.00 64 1009.6
20260509191456 74 58 0.0 4.0 0.00 0.00 0.00 63 1009.7
20260509190730 74 15 0.0 5.0 0.00 0.00 0.00 61 1009.8
20260509190719 75 290 0.0 5.0 0.00 0.00 0.00 59 1009.7
20260509185731 76 43 0.0 3.0 0.00 0.00 0.00 59 1009.6
20260509185233 76 52 0.0 3.0 0.00 0.00 0.00 57 1009.6
20260509184730 76 275 0.0 8.0 0.00 0.00 0.00 58 1009.6
20260509184232 76 241 1.0 8.0 0.00 0.00 0.00 59 1009.6
20260509183947 76 250 1.0 5.0 0.00 0.00 0.00 61 1009.6
20260509183230 76 31 0.0 4.0 0.00 0.00 0.00 60 1009.6
20260509182731 76 128 0.0 3.0 0.00 0.00 0.00 59 1009.7
20260509182231 76 30 0.0 3.0 0.00 0.00 0.00 61 1009.9
20260509181730 76 43 0.0 3.0 0.00 0.00 0.00 60 1009.9
20260509181229 75 53 0.0 4.0 0.00 0.00 0.00 60 1010.2
20260509180728 75 29 0.0 5.0 0.00 0.00 0.00 59 1010.3
20260509180443 74 53 1.0 4.0 0.00 0.00 0.00 60 1010.5
20260509180425 74 45 0.0 5.0 0.00 0.00 0.00 61 1010.4
20260509175229 74 57 1.0 4.0 0.00 0.00 0.00 60 1010.6
20260509174728 74 64 0.0 2.0 0.00 0.00 0.00 60 1010.4
20260509174448 74 59 0.0 2.0 0.00 0.00 0.00 62 1010.5
20260509173729 74 302 0.0 3.0 0.00 0.00 0.00 62 1010.7
20260509173229 73 178 1.0 3.0 0.00 0.00 0.00 62 1010.7
20260509172729 73 6 0.0 2.0 0.00 0.00 0.00 62 1010.8
20260509172228 73 49 0.0 2.0 0.00 0.00 0.00 62 1010.8
20260509171728 74 58 0.0 3.0 0.00 0.00 0.00 62 1011.0
20260509171229 74 3 0.0 3.0 0.00 0.00 0.00 62 1011.0
20260509170728 74 44 0.0 3.0 0.00 0.00 0.00 62 1011.0
20260509170229 74 82 0.0 3.0 0.00 0.00 0.00 64 1011.1
20260509165729 74 104 0.0 1.0 0.00 0.00 0.00 63 1011.1
20260509165229 73 41 0.0 2.0 0.00 0.00 0.00 65 1011.2
20260509164729 73 61 1.0 4.0 0.00 0.00 0.00 62 1011.2
20260509164229 74 48 0.0 4.0 0.00 0.00 0.00 62 1011.3
20260509163729 74 84 0.0 4.0 0.00 0.00 0.00 65 1011.1
20260509163229 74 294 1.0 5.0 0.00 0.00 0.00 66 1011.1
20260509162728 73 129 0.0 5.0 0.00 0.00 0.00 64 1011.1
20260509162229 73 22 0.0 5.0 0.00 0.00 0.00 66 1011.2
20260509161730 73 98 0.0 1.0 0.00 0.00 0.00 67 1011.4
20260509161229 73 27 0.0 2.0 0.00 0.00 0.00 66 1011.3
20260509160729 72 169 0.0 4.0 0.00 0.00 0.00 66 1011.4
20260509160229 73 202 0.0 4.0 0.00 0.00 0.00 66 1011.2
20260509155729 73 54 0.0 4.0 0.00 0.00 0.00 66 1011.4
20260509155712 72 53 1.0 6.0 0.00 0.00 0.00 66 1011.5
20260509154730 72 17 1.0 6.0 0.00 0.00 0.00 65 1011.4
20260509154231 72 62 0.0 4.0 0.00 0.00 0.00 64 1011.5
20260509153729 72 58 0.0 4.0 0.00 0.00 0.00 64 1011.2
20260509153228 72 48 0.0 4.0 0.00 0.00 0.00 64 1011.1
20260509152728 72 238 0.0 2.0 0.00 0.00 0.00 66 1011.2
20260509152450 71 67 0.0 3.0 0.00 0.00 0.00 66 1011.4
20260509151729 71 42 0.0 7.0 0.00 0.00 0.00 64 1011.6
20260509151229 71 130 0.0 7.0 0.00 0.00 0.00 65 1011.8
20260509150732 71 55 0.0 4.0 0.00 0.00 0.00 67 1011.9
20260509150229 71 65 0.0 4.0 0.00 0.00 0.00 67 1012.0
20260509145729 70 217 0.0 3.0 0.00 0.00 0.00 68 1012.0
20260509145450 70 41 0.0 3.0 0.00 0.00 0.00 69 1011.9
20260509144728 69 84 0.0 4.0 0.00 0.00 0.00 70 1012.1
20260509144230 69 58 0.0 4.0 0.00 0.00 0.00 70 1012.3
20260509143953 69 69 0.0 2.0 0.00 0.00 0.00 71 1012.3
20260509143229 69 276 0.0 1.0 0.00 0.00 0.00 73 1012.5
20260509142729 69 131 0.0 1.0 0.00 0.00 0.00 73 1012.5
20260509142228 68 201 0.0 1.0 0.00 0.00 0.00 74 1012.5
20260509141732 68 89 0.0 2.0 0.00 0.00 0.00 74 1012.7
20260509141453 68 86 0.0 2.0 0.00 0.00 0.00 74 1012.8
20260509140954 67 43 0.0 1.0 0.00 0.00 0.00 78 1012.9
20260509140231 66 48 0.0 1.0 0.00 0.00 0.00 79 1012.9
20260509135731 65 43 0.0 0.0 0.00 0.00 0.00 83 1012.9
20260509135230 64 43 0.0 1.0 0.00 0.00 0.00 82 1012.9
20260509134722 64 86 0.0 1.0 0.00 0.00 0.00 83 1013.0
20260509134217 63 112 0.0 0.0 0.00 0.00 0.00 83 1013.0
20260509133711 63 110 0.0 1.0 0.00 0.00 0.00 84 1013.1
20260509133211 63 70 0.0 1.0 0.00 0.00 0.00 84 1013.2
20260509132709 63 167 0.0 1.0 0.00 0.00 0.00 86 1013.1
20260509132428 62 157 0.0 1.0 0.00 0.00 0.00 85 1013.1
20260509131705 62 259 0.0 2.0 0.00 0.00 0.00 86 1013.0
20260509131203 62 112 0.0 2.0 0.00 0.00 0.00 85 1013.3
20260509130705 62 62 0.0 1.0 0.00 0.00 0.00 86 1013.5
20260509130203 62 19 0.0 1.0 0.00 0.00 0.00 87 1013.5
20260509125703 62 275 0.0 1.0 0.00 0.00 0.00 87 1013.5
20260509125204 62 141 0.0 1.0 0.00 0.00 0.00 89 1013.3
20260509124704 62 143 0.0 1.0 0.00 0.00 0.00 89 1013.1
20260509124422 61 242 0.0 1.0 0.00 0.00 0.00 91 1013.0
20260509123702 60 146 0.0 1.0 0.00 0.00 0.00 93 1012.9
20260509123200 59 82 0.0 1.0 0.00 0.00 0.00 94 1012.8
20260509122701 58 235 0.0 2.0 0.00 0.00 0.00 95 1012.8
20260509122201 58 34 0.0 2.0 0.00 0.00 0.00 96 1012.8
20260509121701 57 340 0.0 2.0 0.00 0.00 0.00 96 1013.1
20260509121201 57 128 0.0 2.0 0.00 0.00 0.00 97 1013.2
20260509120701 56 95 0.0 1.0 0.00 0.00 0.00 97 1013.4
20260509120418 55 35 0.0 1.0 0.00 0.00 0.00 97 1013.4
20260509115701 55 148 0.0 0.0 0.00 0.00 0.00 97 1013.4
20260509115201 55 150 0.0 0.0 0.00 0.00 0.00 97 1013.4
20260509114700 54 149 0.0 0.0 0.00 0.00 0.00 97 1013.5
20260509114201 54 149 0.0 0.0 0.00 0.00 0.00 97 1013.4
20260509113701 53 149 0.0 0.0 0.00 0.00 0.00 97 1013.3
20260509113201 53 149 0.0 0.0 0.00 0.00 0.00 97 1013.1
20260509112701 53 146 0.0 0.0 0.00 0.00 0.00 97 1013.1
20260509112431 52 143 0.0 0.0 0.00 0.00 0.00 96 1012.9
20260509111705 52 143 0.0 1.0 0.00 0.00 0.00 96 1013.0
20260509111203 52 159 0.0 1.0 0.00 0.00 0.00 96 1013.0
20260509110703 52 161 0.0 0.0 0.00 0.00 0.00 96 1012.8
20260509110202 51 161 0.0 0.0 0.00 0.00 0.00 96 1012.8
20260509105931 51 160 0.0 0.0 0.00 0.00 0.00 96 1012.6
20260509105203 51 159 0.0 0.0 0.00 0.00 0.00 96 1012.5
20260509104703 51 159 0.0 0.0 0.00 0.00 0.00 96 1012.4
20260509104202 51 160 0.0 0.0 0.00 0.00 0.00 96 1012.4
20260509103705 51 121 0.0 0.0 0.00 0.00 0.00 96 1012.4
20260509103424 51 117 0.0 0.0 0.00 0.00 0.00 96 1012.5
20260509102706 51 117 0.0 0.0 0.00 0.00 0.00 95 1012.5
20260509102200 51 114 0.0 0.0 0.00 0.00 0.00 95 1012.4
20260509101702 51 112 0.0 0.0 0.00 0.00 0.00 95 1012.4
20260509101201 51 113 0.0 0.0 0.00 0.00 0.00 95 1012.3
20260509100701 51 112 0.0 0.0 0.00 0.00 0.00 95 1012.4
20260509100200 51 112 0.0 0.0 0.00 0.00 0.00 95 1012.4
20260509095701 51 112 0.0 0.0 0.00 0.00 0.00 95 1012.4
20260509095420 51 112 0.0 0.0 0.00 0.00 0.00 95 1012.4
20260509094701 51 112 0.0 0.0 0.00 0.00 0.00 95 1012.4
20260509094200 51 112 0.0 0.0 0.00 0.00 0.00 95 1012.4
20260509093701 51 112 0.0 0.0 0.00 0.00 0.00 94 1012.5
20260509093201 51 112 0.0 0.0 0.00 0.00 0.00 94 1012.5
20260509092922 51 112 0.0 0.0 0.00 0.00 0.00 94 1012.4
20260509092201 52 112 0.0 0.0 0.00 0.00 0.00 94 1012.5
20260509091702 52 112 0.0 0.0 0.00 0.00 0.00 94 1012.5
20260509091200 52 112 0.0 0.0 0.00 0.00 0.00 94 1012.6
20260509090704 52 112 0.0 0.0 0.00 0.00 0.00 94 1012.7
20260509090423 52 112 0.0 0.0 0.00 0.00 0.00 94 1012.6
20260509085702 52 112 0.0 0.0 0.00 0.00 0.00 94 1012.7
20260509085202 52 112 0.0 0.0 0.00 0.00 0.00 94 1012.7
20260509084703 52 112 0.0 0.0 0.00 0.00 0.00 94 1012.8
20260509084203 52 112 0.0 0.0 0.00 0.00 0.00 94 1012.9
20260509083705 52 112 0.0 0.0 0.00 0.00 0.00 94 1013.0
20260509083202 52 112 0.0 0.0 0.00 0.00 0.00 93 1013.0
20260509082703 52 112 0.0 0.0 0.00 0.00 0.00 93 1013.1
20260509082204 52 112 0.0 0.0 0.00 0.00 0.00 93 1013.1
20260509081932 52 112 0.0 0.0 0.00 0.00 0.00 93 1013.1
20260509081203 52 112 0.0 0.0 0.00 0.00 0.00 92 1013.1
20260509080702 53 112 0.0 0.0 0.00 0.00 0.00 92 1013.0
20260509080203 53 112 0.0 0.0 0.00 0.00 0.00 92 1013.0
20260509075703 53 112 0.0 0.0 0.00 0.00 0.00 92 1013.1
20260509075203 53 112 0.0 0.0 0.00 0.00 0.00 92 1013.1
20260509074655 53 112 0.0 0.0 0.00 0.00 0.00 91 1013.1
20260509074148 53 112 0.0 0.0 0.00 0.00 0.00 91 1013.0
20260509073642 53 112 0.0 0.0 0.00 0.00 0.00 91 1013.1
20260509073137 53 112 0.0 0.0 0.00 0.00 0.00 91 1013.1
20260509072632 53 112 0.0 0.0 0.00 0.00 0.00 91 1013.1
20260509072129 53 112 0.0 0.0 0.00 0.00 0.00 90 1013.2
20260509071629 53 112 0.0 0.0 0.00 0.00 0.00 90 1013.3
20260509071129 53 112 0.0 0.0 0.00 0.00 0.00 90 1013.2
20260509070629 53 112 0.0 0.0 0.00 0.00 0.00 90 1013.3
20260509070357 53 112 0.0 0.0 0.00 0.00 0.00 89 1013.2
20260509065631 54 112 0.0 0.0 0.00 0.00 0.00 89 1013.2
20260509065129 54 112 0.0 0.0 0.00 0.00 0.00 89 1013.3
20260509064849 54 112 0.0 0.0 0.00 0.00 0.00 89 1013.3
20260509064129 54 112 0.0 0.0 0.00 0.00 0.00 88 1013.3
20260509063629 54 112 0.0 0.0 0.00 0.00 0.00 88 1013.3
20260509063130 54 112 0.0 0.0 0.00 0.00 0.00 88 1013.5
20260509062630 55 112 0.0 0.0 0.00 0.00 0.00 88 1013.6
20260509062351 55 112 0.0 0.0 0.00 0.00 0.00 87 1013.7
20260509062111 55 112 0.0 0.0 0.00 0.00 0.00 87 1014.0
20260509061129 55 112 0.0 0.0 0.00 0.00 0.00 87 1014.0
20260509060851 55 112 0.0 0.0 0.00 0.00 0.00 86 1014.1
20260509060128 55 112 0.0 0.0 0.00 0.00 0.00 86 1014.1
20260509055630 55 112 0.0 0.0 0.00 0.00 0.00 85 1014.1
20260509055129 55 112 0.0 0.0 0.00 0.00 0.00 85 1014.2
20260509054629 56 112 0.0 0.0 0.00 0.00 0.00 85 1014.2
20260509054130 56 112 0.0 0.0 0.00 0.00 0.00 84 1014.2
20260509053628 56 112 0.0 0.0 0.00 0.00 0.00 84 1014.2
20260509053351 56 112 0.0 0.0 0.00 0.00 0.00 84 1014.3
20260509052629 56 112 0.0 0.0 0.00 0.00 0.00 83 1014.3
20260509052130 57 112 0.0 0.0 0.00 0.00 0.00 83 1014.3
20260509052109 57 112 0.0 0.0 0.00 0.00 0.00 83 1014.4
20260509051129 57 112 0.0 0.0 0.00 0.00 0.00 83 1014.4
20260509050631 57 112 0.0 0.0 0.00 0.00 0.00 83 1014.5
20260509050356 57 112 0.0 0.0 0.00 0.00 0.00 82 1014.4
20260509045631 57 112 0.0 0.0 0.00 0.00 0.00 82 1014.4
20260509045131 57 112 0.0 0.0 0.00 0.00 0.00 81 1014.4
20260509044629 57 112 0.0 0.0 0.00 0.00 0.00 81 1014.4
20260509044128 57 112 0.0 0.0 0.00 0.00 0.00 81 1014.3
20260509043629 58 112 0.0 0.0 0.00 0.00 0.00 81 1014.4
20260509043129 58 112 0.0 0.0 0.00 0.00 0.00 80 1014.3
20260509042628 58 112 0.0 0.0 0.00 0.00 0.00 80 1014.3
20260509042129 58 112 0.0 0.0 0.00 0.00 0.00 80 1014.2
20260509041633 58 112 0.0 0.0 0.00 0.00 0.00 79 1014.3
20260509041129 58 112 0.0 1.0 0.00 0.00 0.00 79 1014.4
20260509040629 58 113 0.0 1.0 0.00 0.00 0.00 79 1014.3
20260509040129 58 211 0.0 1.0 0.00 0.00 0.00 79 1014.2
20260509035630 58 156 0.0 1.0 0.00 0.00 0.00 79 1014.3
20260509035129 58 170 0.0 1.0 0.00 0.00 0.00 79 1014.3
20260509034628 58 168 0.0 1.0 0.00 0.00 0.00 79 1014.3
20260509034129 58 232 0.0 0.0 0.00 0.00 0.00 79 1014.4
20260509033854 58 232 0.0 0.0 0.00 0.00 0.00 78 1014.5
20260509033617 58 232 0.0 0.0 0.00 0.00 0.00 79 1014.5
20260509032628 57 233 0.0 0.0 0.00 0.00 0.00 78 1014.6
20260509032130 57 233 0.0 0.0 0.00 0.00 0.00 78 1014.5
20260509031630 57 233 0.0 0.0 0.00 0.00 0.00 78 1014.4
20260509031129 57 214 0.0 0.0 0.00 0.00 0.00 79 1014.4
20260509030630 57 193 0.0 0.0 0.00 0.00 0.00 78 1014.4
20260509030129 57 193 0.0 0.0 0.00 0.00 0.00 77 1014.6
20260509025631 57 181 0.0 0.0 0.00 0.00 0.00 76 1014.5
20260509025130 57 181 0.0 0.0 0.00 0.00 0.00 77 1014.7
20260509024629 57 181 0.0 0.0 0.00 0.00 0.00 76 1014.6
20260509024129 57 181 0.0 0.0 0.00 0.00 0.00 77 1014.7
20260509023629 57 181 0.0 0.0 0.00 0.00 0.00 76 1014.7
20260509023129 57 181 0.0 0.0 0.00 0.00 0.00 76 1014.7
20260509022831 57 181 0.0 0.0 0.00 0.00 0.00 74 1014.6
20260509022821 57 182 0.0 0.0 0.00 0.00 0.00 75 1014.7
20260509021629 57 182 0.0 0.0 0.00 0.00 0.00 74 1014.6
20260509021353 58 181 0.0 0.0 0.00 0.00 0.00 74 1014.6
20260509020631 58 182 0.0 0.0 0.00 0.00 0.00 74 1014.6
20260509020131 58 181 0.0 0.0 0.00 0.00 0.00 72 1014.6
20260509015633 58 182 0.0 0.0 0.00 0.00 0.00 72 1014.5
20260509015130 58 181 0.0 0.0 0.00 0.00 0.00 73 1014.5
20260509014632 58 182 0.0 0.0 0.00 0.00 0.00 72 1014.5
20260509014133 59 181 0.0 0.0 0.00 0.00 0.00 72 1014.6
20260509013631 59 181 0.0 0.0 0.00 0.00 0.00 71 1014.6
20260509013131 59 182 0.0 0.0 0.00 0.00 0.00 71 1014.6
20260509012629 59 182 0.0 0.0 0.00 0.00 0.00 70 1014.4
20260509012130 59 182 0.0 0.0 0.00 0.00 0.00 69 1014.3
20260509011628 59 181 0.0 0.0 0.00 0.00 0.00 69 1014.3
20260509011129 60 182 0.0 0.0 0.00 0.00 0.00 69 1014.3
20260509010629 60 181 0.0 0.0 0.00 0.00 0.00 68 1014.0
20260509010129 60 181 0.0 0.0 0.00 0.00 0.00 67 1014.0
20260509005629 60 182 0.0 0.0 0.00 0.00 0.00 67 1014.0
20260509005128 60 181 0.0 0.0 0.00 0.00 0.00 65 1013.9
20260509004629 61 181 0.0 0.0 0.00 0.00 0.00 64 1013.8
20260509004352 61 182 0.0 0.0 0.00 0.00 0.00 64 1013.8
20260509003629 62 182 0.0 0.0 0.00 0.00 0.00 62 1013.6
20260509003129 62 181 0.0 0.0 0.00 0.00 0.00 61 1013.7
20260509002628 62 181 0.0 0.0 0.00 0.00 0.00 60 1013.8
20260509002130 63 182 0.0 0.0 0.00 0.00 0.00 59 1013.7
20260509001630 63 181 0.0 0.0 0.00 0.00 0.00 59 1013.8
20260509001129 63 181 0.0 0.0 0.00 0.00 0.00 57 1013.8
20260509000849 64 182 0.0 0.0 0.00 0.00 0.00 57 1013.7
20260509000128 64 181 0.0 0.0 0.00 0.00 0.00 58 1013.8